[問題] 有關外匯GLC300的疑問

看板: car時間: 2020年11月20日作者: proliferate

大家好. 因為有了兒子後一直覺得安全性實在很重要 加上一股想換進口車的熱血就跑去看了xc60/x3/跟glc300 今天在台中環中路上一間德國x馬看了一台glc300業務宣稱是2019的新車哩程一定在50公 里內.請問這些話是真的嗎? 因為小弟從沒有接觸過外匯車.對於外匯車的想法一直停留在就是國外的二手車年代 所以想上來請問有研究外匯車的大哥的說法 --
※ 發信站: 批踢踢實業坊(ptt.cc), 來自: 223.141.246.130 (臺灣) ※ 文章網址: https://www.ptt.cc/bbs/car/M.1605860388.A.4CB.html
1Flouie83279: 美國檢驗報告,資料拿出來,對一對就知道是不是真 11/20 16:25
2Flouie83279: 的了,祝你好運 11/20 16:26
3Fpigking75: 的確就是國外二手車啊 11/20 16:31
4Fjior: 對啊,不是二手是啥,不過你買這麼新的外匯車有划 11/20 16:35
5Fjior: 算嗎? 11/20 16:35
6Fproliferate: 其實還蠻划算的.選配到來才240左右 11/20 16:38
7Fbeergap: 就洋人開過的二手無誤啊 11/20 16:40
8Frohan21: SUV還是Coupe?應該沒23P吧?然後你要想清楚,外匯車 11/20 16:43
9Frohan21: 容易被酸喔,開幾年賣二手時,價格也比總代理的車 11/20 16:43
10FiPadProPlus: 看實車就知道了啊,不是50公里再砍他價格 11/20 16:43
11Frohan21: 還差... 所以管他說什麼50公里新車,還不就是2019 11/20 16:43
12Frohan21: 年產的,現在都要2021年了,折舊要考慮進去 11/20 16:43
13Fneverfly: 就算只跑50公里還是二手車啊 11/20 16:45
14Fneverfly: 假設有調表,就算去台灣原廠查,會有國外的紀錄嗎 11/20 16:46
15Fb131325: 的確就是國外賣不掉的二手車進來台灣賣 11/20 16:46
16Fb131325: 因為國外的雙B新車只有台灣一半價格 11/20 16:46
17Fb131325: 我沒辦法接受二手所以還是當盤子買總代理 11/20 16:47
18Faustintsou: 我覺得沒有甚麼不好 自己開心就好阿管別人那麼多 11/20 16:50
19Fcsgod1325: 國外無限速 休旅高速開起來很不爽,單台灣了不起才1 11/20 16:52
20Fcsgod1325: 20公里/hr 對台灣很夠用 11/20 16:52
21Fstillcolor: 是國外的二手車啊怎麼了嗎?買不起的還是多數啦 11/20 16:54
22Fcheetahspeed: 洋人用過的不算啦 照總代理新車賣 11/20 16:56
23Fneverfly: 問:買不起的國外二手車,那是什麼? 11/20 17:00
24Fneverfly: 答:還是二手車 11/20 17:00
25Flaugh8562: 我就不懂車殼是有貼外匯車的銘牌嗎?誰酸你? 11/20 17:10
26FItBanK: 有多少錢做多少事啊 如果你喜歡但是預算不夠也只能 11/20 17:11
27FItBanK: 將就二手嚕 11/20 17:11
28Friripon: 直接捏上2021的吧 雙液晶螢幕好看多了 11/20 17:13
29Frohan21: 頭燈跟尾燈很好認的!我就是扛不住壓力然後換車。 11/20 17:15
30Frohan21: 對啦就是我同溫層的人這麼無聊才會酸別人XD 我也只 11/20 17:15
31Frohan21: 是提醒有這個考量點,原PO心態夠堅定的話當然就沒 11/20 17:15
32Frohan21: 這問題~ 11/20 17:15
33Fmike1124109: 只能說 good luck 11/20 17:16
34Fchiz2: 業務的話能聽 11/20 17:20
35Fsupereva: 小改款前的glc300都是外匯 11/20 17:22
36Fliopei: 去加一個外匯300的群組就可以知道大家都在修什麼了 11/20 17:24
37Fsupereva: 不過外匯又怎樣 二手賓士也是賓士啊 又不是說二 11/20 17:24
38Fsupereva: 手就跟vios一樣便宜 11/20 17:24
39Fb07130602: 現在總代理要等多久啊 11/20 17:32
40Fkobe760903: 240划算到哪… 你賣車價差就吐回去了 11/20 17:43
41Fkobe760903: 即使你買很新的外匯人家一看到就認為你買二手的 11/20 17:45
42Fkobe760903: 所以真要買外匯建議買三年左右的 11/20 17:46
43Feericchutw: 車板根本平行時空 現實根本沒多少人知道外匯差別 11/20 17:53
44Flittlelight0: 2019年的車,50公里,可能是展場車 11/20 17:53
45Feericchutw: 等等又有人要說什麼接送小孩被其他家長笑二手了 11/20 17:54
46Fpipi7878: 別傻了 現實世界才不會有人酸你外匯車 不講沒人知道 11/20 17:56
47Fsharku: 覺得喜歡就買 11/20 17:56
48Ftitansan: 看有沒有反光板就知道了啊,怎麼不知道 11/20 18:05
49FSA8699: 看名單感覺你蠻有錢的 挑自己喜歡的吧 11/20 18:06
50Fproliferate: 應該還好吧.預算250應該版上一堆人在都有這個能力 11/20 18:10
51Fjior: 外匯二手車價我是覺得還好啦,總代理價格高二手車 11/20 18:15
52Fjior: 價也比較高,外匯價格低賣的二手價本來也就該低, 11/20 18:15
53Fjior: 其實也沒啥差,反正賓士還不是都能去原廠維修保養 11/20 18:15
54Fjior: ,只是問題源頭是一開始你買的這台這樣到底算起來 11/20 18:15
55Fjior: 划算不划算而已,一開始買的就不划算後面怎樣賣都 11/20 18:15
56Fjior: 是不划算,其他的問題看各人吧,誰沒事會去管你是 11/20 18:16
57Fjior: 不是外匯 11/20 18:16
58Fmingdao: 現實世界頂多笑C300 不會笑其他外匯大車 11/20 18:18
59Fa523928: 反光板咧 開在路上根本來不及注意 即使停下來給他 11/20 18:18
60Fa523928: 看 你不講 他還不知道反光板是指哪裡 何況現在反光 11/20 18:18
61Fa523928: 板越來越小了 11/20 18:19
62Fwhat5566: 外匯300跟200價差多少啊 怎麼感覺大家外匯都買300 11/20 18:19
63Fa523928: 二手價也不用太擔心啦 就算你是總代理 如果買的還 11/20 18:20
64Fa523928: 是c300.glc300這類的 二手價還是會因為外匯市場的競 11/20 18:20
65Fa523928: 爭 價格不得不壓低 11/20 18:21
66Fa523928: 但240的glc的確有點貴 11/20 18:23
67Fjior: 對啊,都二手過保了,總代理跟外匯那個差異其實沒 11/20 18:31
68Fjior: 那麼大,主要還是看車況配備價格吧 11/20 18:31
69FWarez: 現實世界就是ALTIS笑開c300全貸窮人8+9 11/20 18:32
70Fiamok329: 現實生活朋友中當然會酸啊 只是不會讓該車主知道啦 11/20 18:50
71Fproliferate: 所以現在的人寧願去酸一個可以買250萬車的人?也會 11/20 19:02
72Fproliferate: 覺得買國產新車的很棒棒? 11/20 19:02
73Fhanasiro: 就仇富啊 剛好外匯好酸這樣 11/20 19:18
74FGarbolin: 我覺得cp值挺高的 11/20 19:18
75Fproliferate: 是啊.我也是覺得cp值挺高的.但沒有碰過外匯車才想上 11/20 19:20
76Fproliferate: 來問一下 11/20 19:20
77Fmorrishh: 不管是不是外匯車,你都要看配備表,除了車況以外, 11/20 19:23
78Fmorrishh: 他到底選配了哪些東西才是決定了價格的主要因素 11/20 19:23
79Fmorrishh: 問問看是不是原廠CPO的,是的話至少多一點保障, 11/20 19:24
80FChanlin01: 管別人酸 開賓士絕對比神a還是什麼cc 啦 11/20 19:50
81FChanlin01: Glc300安全性屌打toyota 11/20 19:52
82Fproliferate: 感謝各位的指導 11/20 19:54
83Fmixmix: 還是買保養最便宜的Toyota就好了,被灌水也甘願 11/20 19:58
84Fyorker1224: 里程數真的50公里的話應該是新車,之前在美國買的RX 11/20 20:02
85Fyorker1224: 300新車就37公里的里程數 11/20 20:02
86Friripon: 外匯還差在介面你要另外找人裝中文系統阿 11/20 20:19
87FsizeLarge: 買總代理 11/20 20:33
88Fd8711013: 240太貴了 11/20 20:35
89FPtt54542212: 覺得會被酸是自己自卑吧 大哥 11/20 20:51
90FKKmex: 我從Altis換成BMW 530, 完全不接受二手車 11/20 21:31
91FKKmex: 寧願買新的國產,不買二手進口 11/20 21:32
92Fmorrishh: 給你一個簡單的建議,如果你在乎選配,那找合適的外 11/20 22:10
93Fmorrishh: 匯很划算;反之如果只是要標配,那找台灣新車或者原 11/20 22:10
94Fmorrishh: 廠CPO看看就行了,沒差到那麼多,還有可看現車優點 11/20 22:10
95Fmorrishh: 我當初德訂等了九個月,現在應該不用那麼久。對了, 11/20 22:12
96Fmorrishh: 如果你蠻在乎Mercedes Me,那還是找台賓好一點,我 11/20 22:12
97Fmorrishh: 不確定外匯車商能不能把多媒體整合做好,你要問問 11/20 22:12
98Fkobe760903: 外匯c300本身沒什麼問題 有問題是買它的車主 11/20 22:31
99Fkobe760903: 買外匯的89剛好偏愛c300 c250 另外看方向燈就知道了 11/20 22:32
100Fkobe760903: 路上愛標亂鑽的c咖幾乎都外匯 11/20 22:34
101Fdslite: 歐瑪不會騙人吧 這麼大間 11/20 22:51
102Fs8700141: 買外匯也不買爛國產 11/20 23:14
103Flucky945: #不是買不起 #是太多8+9開不想買 11/21 00:20
104Faaboutt: 在路上看到很多賓士B開頭新車牌,很高的比例都有黃 11/21 01:00
105Faaboutt: 眼燈,車後也沒有台灣賓士銘牌的C300或GLC,外匯賓士 11/21 01:00
106Faaboutt: 會不會已經超越代理商的銷量了? 11/21 01:00
107FMizkyo: 外匯便宜幹馬買總代理當盤子 11/21 01:49
108FMizkyo: 而且有外匯新車阿..不過比總代理便宜不了多少~但配 11/21 01:51
109FMizkyo: 備不少 11/21 01:51
110Fgeorgelkk: 美國做的吧 11/21 03:23
111Feagerlydark: 其實外面的世界會笑你買外匯的很少啦 很多也是從P 11/21 08:21
112Feagerlydark: TT爬出去的鄉民。車子真沒問題又喜歡的話就買吧 11/21 08:21
113Fclearday: 沒有反光片我可是不買的喔 11/21 08:51
114FLexusNo1: 有錢根本不會考慮被操爛的二手車,二手仔理由一大堆 11/21 08:58
115FLexusNo1: ,最終還不是因為錢不夠xddd 11/21 08:58
116FPlayPlatysma: 來這裡被一堆競戰仔噓也得不到意見吧 11/21 09:14
117Fbigbill: 二手根本沒差,處女情節作祟吧 11/21 10:48
118Fleehao: 把車上的VIN 號碼拿去餵google就有資料啦 11/21 10:52
119Fvitals: 剛買外匯 覺得Cp值很高 建議買3年2手比較好 不要買 11/21 11:47
120Fvitals: 新車外匯 價差不大 也是在德X買的 11/21 11:48
121Flightnomo: 自己覺得划算就好了阿,價差擺在那邊 11/21 11:55
122Fghjkl5566: 我到現在除了C300外還是分不出哪台是外匯 11/21 12:42
123FGX151253: 看大燈有黃牌..哎呀是外匯的 11/21 15:16
124FMonkeyD5566: glc阿,超越c300的多的外匯車 11/21 17:48
125FLearnRPG: 說實在路上80%的人根本分不出來 分的出來的反而都是 11/22 08:07
126FLearnRPG: 想開這種車但是連外匯都買不起的人 XD 11/22 08:07
127Fmoneypack3: 多花100萬養經銷商和業代比較高尚 11/22 13:16

car熱門文章

99 [問題] 200萬內進口車選擇
199 car 2020-11-28 17:16
17 [問題] 講真的禮拜一領牌
79 car 2020-11-27 17:22
40 [問題] 新KUGA妥善率?
87 car 2020-11-27 16:55
28 [問題] 福斯為何不國產化?
63 car 2020-11-27 15:36
70 [問題] 現在買VIOS很虧嗎?
170 car 2020-11-27 12:48
32 [問題] 施工飛漆處理
64 car 2020-11-27 00:14

全站熱門文章

65 [問題] 森山市集
99 tainan 2020-11-28 22:43
19 [問題] 比你宅的Vtuber?
43 c_chat 2020-11-28 22:36
20 [問題] 沙發選色障礙
39 womentalk 2020-11-28 21:05
99 [問題] 200萬內進口車選擇
199 car 2020-11-28 17:16